Regional Weather Roundup
Issued by NWS

Home | Current Version | Previous Version | Graphics & Text | Print | Product List | Glossary On
Versions: 1 2 3 4 5 6 7 8 9 10 11 12 13 14 15 16 17 18 19 20 21 22 23 24 25 26 27 28 29 30 31 32 33 34 35 36 37 38 39 40 41 42 43 44 45 46 47 48 49 50
005
ASUS43 KLOT 261204
RWRIL

ILLINOIS REGIONAL WEATHER ROUNDUP
NATIONAL WEATHER SERVICE CHICAGO/ROMEOVILLE IL
700 AM CDT FRI MAY 26 2017

NOTE: "FAIR" INDICATES FEW OR NO CLOUDS BELOW 12,000 FEET WITH NO
SIGNIFICANT WEATHER AND/OR OBSTRUCTIONS TO VISIBILITY.

* THESE STATIONS ARE NOT UNDER NWS QUALITY CONTROL. THEY ALSO MAY NOT
  REPORT WEATHER SUCH AS PRECIPITATION OR FOG.

ILZ001-002-007-009-015-016-024-261300-
NORTHWEST ILLINOIS

CITY           SKY/WX    TMP DP  RH WIND       PRES   REMARKS
MOLINE         SUNNY     59  55  87 E7        29.78R
6HR MIN TEMP:  56; 6HR MAX TEMP:  61; 6HR PCP: TRACE;

STERLING*      MOSUNNY   58  56  93 E7        29.81S
SAVANNA*       CLOUDY    59  55  87 CALM      29.80R
$$

ILZ003-004-008-010-011-017-018-261300-
NORTH CENTRAL ILLINOIS

CITY           SKY/WX    TMP DP  RH WIND       PRES   REMARKS
ROCKFORD       PTSUNNY   57  54  89 S5        29.84S FOG
6HR MIN TEMP:  54; 6HR MAX TEMP:  58; 6HR PCP: TRACE;

FREEPORT*      SUNNY     55  55  99 E3        29.83S FOG
ROCHELLE*      SUNNY     56  55  94 SE7       29.84R FOG
DE KALB*       CLOUDY    56  55  96 SE3       29.85R FOG
$$

ILZ005-006-012>014-019>023-261300-
NORTHEAST ILLINOIS

CITY           SKY/WX    TMP DP  RH WIND       PRES   REMARKS
CHICAGO-OHARE  PTSUNNY   58  52  80 CALM      29.84S
6HR MIN TEMP:  52; 6HR MAX TEMP:  58; 6HR PCP: TRACE;

CHICAGO-MIDWAY CLOUDY    58  53  84 SE3       29.85S
6HR MIN TEMP:  52; 6HR MAX TEMP:  58;

AURORA         CLOUDY    57  55  93 CALM      29.85R FOG
6HR MIN TEMP:  52; 6HR MAX TEMP:  58;

LANSING*       MOSUNNY   52  52 100 CALM      29.86S FOG
JOLIET*        MOSUNNY   56  55  95 CALM      29.85S FOG
WAUKEGAN       CLOUDY    54  53  97 NE5       29.85R FOG
6HR MIN TEMP:  47; 6HR MAX TEMP:  55;

DUPAGE AIRPORT CLOUDY    56  55  97 SE3       29.84R
6HR MIN TEMP:  52; 6HR MAX TEMP:  56;

WHEELING       CLOUDY    55  53  93 CALM      29.86S
6HR MIN TEMP:  49; 6HR MAX TEMP:  55;

MORRIS*          N/A     56  55  95 CALM      29.84R FOG
ROMEOVILLE*    CLOUDY    55  55 100 SE5       29.85S FOG
NORTHERLY ISL    N/A     57  51  80 SE2         N/A
$$

LMZ740>746-261300-
SOUTHERN LAKE MICHIGAN

STATION/POSITION SKY/WX   TEMP    WIND        PRES    VSBY  WAVE
                          AIR SEA DIR/SP/G                  HT/PER
                          (F)     (DEG/KT/KT) (MB)    (MI)  (FT/S)
SOUTHERN BUOY              46 45  360/  6/  8 1010.7          1/ 5
WILMETTE HARBOR            52 51                N/A           2/ 5
HARRISON CRIB              56      90/  3/  3   N/A
BURNHAM HARBOR             58     120/  3/  4   N/A
CALUMET HARBOR             56      CALM  /  1 1010.6R
BURNS HARBOR               55     200/  1/  2 1011.9R
MICHIGAN CITY              54      CALM  /  1   N/A
MICHIGAN CITY 6N           52 51  210/  4/  4   N/A           2/ 5
ST. JOSEPH                 52 55  290/  6/  8 1011.8R         2/ 4
$$

ILZ025>027-034>036-040-047-049-050-058-095>099-261300-
WEST-CENTRAL ILLINOIS

CITY           SKY/WX    TMP DP  RH WIND       PRES   REMARKS
QUINCY         CLOUDY    62  54  74 S8        29.77R
GALESBURG*     CLOUDY    60  55  82 E8        29.78R
MACOMB*        MOSUNNY   59  56  89 SE9       29.81R
JACKSONVILLE*  MOSUNNY   60  55  81 MISG      29.80R
PITTSFIELD*    CLOUDY    61  56  83 SE6       29.80R
$$

ILZ028>032-037-038-041>044-048-051>054-059>061-261300-
CENTRAL ILLINOIS

CITY           SKY/WX    TMP DP  RH WIND       PRES   REMARKS
PONTIAC        MOSUNNY   56  56  97 E7        29.86R FOG
BLOOMINGTON    CLOUDY    58  55  90 SE8       29.84S
DECATUR        CLOUDY    59  56  89 SE7       29.83R
PEORIA         CLOUDY    59  56  89 E6        29.81R
6HR MIN TEMP:  55; 6HR MAX TEMP:  59;

LACON*         CLOUDY    57  55  92 SE7       29.81S
LINCOLN*       CLOUDY    60  57  89 E3        29.81S
SPRINGFIELD    SUNNY     61  57  87 SE7       29.81R
6HR MIN TEMP:  57; 6HR MAX TEMP:  61; 6HR PCP: TRACE;

TAYLORVILLE    NOT AVBL
$$

ILZ033-039-045-046-055>057-062-063-261300-
EAST-CENTRAL ILLINOIS

CITY           SKY/WX    TMP DP  RH WIND       PRES   REMARKS
CHAMPAIGN      CLOUDY    58  55  90 SE8       29.86R FOG
RANTOUL*       SUNNY     58  56  93 SE3       29.86R FOG
MATTOON        CLOUDY    58  57  97 SE7       29.85R
PARIS*         CLOUDY    58  56  95 SE3       29.88R
$$

ILZ079-100>102-261300-
SOUTHWEST ILLINOIS

CITY           SKY/WX    TMP DP  RH WIND       PRES   REMARKS
ALTON          CLOUDY    59  55  88 SE6       29.81R
BELLEVILLE     MOSUNNY   61  56  84 S3        29.83R
CAHOKIA*       MOSUNNY   63  56  78 S6        29.81R
SPARTA*        MOSUNNY   63  56  78 S7        29.83R
$$

ILZ064>066-069>071-074>076-080>082-084>086-088>090-092>094-261300-
SOUTH-CENTRAL ILLINOIS

CITY           SKY/WX    TMP DP  RH WIND       PRES   REMARKS
CARBONDALE     CLOUDY    61  58  90 SE5       29.84R
6HR MIN TEMP:  55; 6HR MAX TEMP:  61;

CAIRO*           N/A     65  57  75 S12       29.86R
EFFINGHAM*     SUNNY     58  57  97 E5        29.87R
MARION         SUNNY     63  57  82 S6        29.86R
MT. VERNON       N/A     61  56  83 CALM      29.85R
CENTRALIA*     SUNNY     64  57  80 SE6       29.83R
SALEM*         SUNNY     63  55  77 SE3       29.84R
$$

ILZ067-068-072-073-078-083-087-091-261300-
SOUTHEAST ILLINOIS

CITY           SKY/WX    TMP DP  RH WIND       PRES   REMARKS
LAWRENCEVILLE  SUNNY     59  57  93 SE3       29.87S
FLORA*         SUNNY     60  56  87 SE3       29.86R
FAIRFIELD*     SUNNY     61  56  83 CALM      29.85R
HARRISBURG*    SUNNY     61  56  83 CALM      29.86R
ROBINSON*      SUNNY     56  56  99 CALM      29.88R FOG
CARMI*         SUNNY     60  56  88 SE7       29.87R
$$

ABBREVIATIONS USED IN REMARKS
   TC - TEMPERATURE IN CELSIUS
  WCI - WIND CHILL INDEX
   HX - HEAT INDEX
  VSB - VISIBILITY
$$





USA.gov is the U.S. government's official web portal to all federal, state and local government web resources and services.